EN

Hourly Weather Oualata

Today, 8 March, Monday

Time Temperature Precipitation Wind Pressure Humidity
00:00 +27°C° 0 mm 5 mps 734 mmHg 16%
01:00 +27°C° 0 mm 5 mps 734 mmHg 17%
02:00 +26°C° 0 mm 5 mps 734 mmHg 17%
03:00 +26°C° 0 mm 5 mps 733 mmHg 18%
04:00 +25°C° 0 mm 5 mps 733 mmHg 18%
05:00 +23°C° 0 mm 5 mps 733 mmHg 18%
06:00 +23°C° 0 mm 6 mps 733 mmHg 19%
07:00 +24°C° 0 mm 6 mps 734 mmHg 17%
08:00 +26°C° 0 mm 7 mps 734 mmHg 16%
09:00 +27°C° 0 mm 7 mps 735 mmHg 14%
10:00 +29°C° 0 mm 7 mps 735 mmHg 13%
11:00 +33°C° 0 mm 6 mps 734 mmHg 11%
12:00 +35°C° 0 mm 6 mps 735 mmHg 10%
13:00 +36°C° 0 mm 5 mps 734 mmHg 10%
14:00 +37°C° 0 mm 4 mps 733 mmHg 9%
15:00 +37°C° 0 mm 4 mps 733 mmHg 9%
16:00 +37°C° 0 mm 4 mps 732 mmHg 9%
17:00 +36°C° 0 mm 3 mps 732 mmHg 10%
18:00 +36°C° 0 mm 3 mps 732 mmHg 10%
19:00 +34°C° 0 mm 4 mps 732 mmHg 11%
20:00 +32°C° 0 mm 4 mps 733 mmHg 12%
21:00 +29°C° 0 mm 4 mps 733 mmHg 13%
22:00 +28°C° 0 mm 4 mps 733 mmHg 14%
23:00 +28°C° 0 mm 4 mps 733 mmHg 14%

Tomorrow, 9 March, Tuesday

Time Temperature Precipitation Wind Pressure Humidity
00:00 +27°C° 0 mm 4 mps 733 mmHg 14%
01:00 +26°C° 0 mm 4 mps 733 mmHg 14%
02:00 +26°C° 0 mm 4 mps 732 mmHg 14%
03:00 +25°C° 0 mm 5 mps 732 mmHg 14%
04:00 +23°C° 0 mm 5 mps 732 mmHg 17%
05:00 +23°C° 0 mm 6 mps 732 mmHg 19%
06:00 +22°C° 0 mm 7 mps 732 mmHg 22%
07:00 +23°C° 0 mm 7 mps 732 mmHg 21%
08:00 +24°C° 0 mm 7 mps 733 mmHg 20%
09:00 +26°C° 0 mm 7 mps 734 mmHg 19%
10:00 +29°C° 0 mm 6 mps 734 mmHg 16%
11:00 +32°C° 0 mm 5 mps 734 mmHg 14%
12:00 +34°C° 0 mm 5 mps 734 mmHg 11%
13:00 +35°C° 0 mm 4 mps 733 mmHg 11%
14:00 +36°C° 0 mm 4 mps 732 mmHg 10%
15:00 +37°C° 0 mm 3 mps 732 mmHg 10%
16:00 +36°C° 0 mm 4 mps 732 mmHg 10%
17:00 +36°C° 0 mm 4 mps 731 mmHg 10%
18:00 +35°C° 0 mm 4 mps 731 mmHg 11%
19:00 +33°C° 0 mm 4 mps 732 mmHg 12%
20:00 +30°C° 0 mm 4 mps 732 mmHg 13%
21:00 +28°C° 0 mm 4 mps 733 mmHg 15%
22:00 +28°C° 0 mm 4 mps 733 mmHg 15%
23:00 +27°C° 0 mm 4 mps 733 mmHg 16%

Day after tomorrow, 10 March, Wednesday

Time Temperature Precipitation Wind Pressure Humidity
00:00 +26°C° 0 mm 5 mps 733 mmHg 16%
01:00 +25°C° 0 mm 5 mps 733 mmHg 19%
02:00 +23°C° 0 mm 5 mps 733 mmHg 23%
03:00 +21°C° 0 mm 6 mps 733 mmHg 26%
04:00 +21°C° 0 mm 6 mps 733 mmHg 28%
05:00 +20°C° 0 mm 6 mps 733 mmHg 29%
06:00 +20°C° 0 mm 6 mps 732 mmHg 31%
07:00 +21°C° 0 mm 7 mps 733 mmHg 29%
08:00 +22°C° 0 mm 7 mps 734 mmHg 27%
09:00 +23°C° 0 mm 8 mps 734 mmHg 25%
10:00 +26°C° 0 mm 7 mps 734 mmHg 21%
11:00 +28°C° 0 mm 7 mps 734 mmHg 17%
12:00 +32°C° 0 mm 6 mps 734 mmHg 13%
13:00 +33°C° 0 mm 6 mps 733 mmHg 11%
14:00 +34°C° 0 mm 5 mps 732 mmHg 9%
15:00 +35°C° 0 mm 5 mps 732 mmHg 8%
16:00 +34°C° 0 mm 5 mps 732 mmHg 8%
17:00 +33°C° 0 mm 4 mps 732 mmHg 8%
18:00 +33°C° 0 mm 4 mps 732 mmHg 7%
19:00 +30°C° 0 mm 4 mps 733 mmHg 8%
20:00 +28°C° 0 mm 4 mps 733 mmHg 8%
21:00 +26°C° 0 mm 4 mps 734 mmHg 8%
22:00 +25°C° 0 mm 4 mps 734 mmHg 9%
23:00 +25°C° 0 mm 4 mps 734 mmHg 9%

11 March, Thursday

Time Temperature Precipitation Wind Pressure Humidity
00:00 +23°C° 0 mm 4 mps 734 mmHg 10%
01:00 +22°C° 0 mm 4 mps 734 mmHg 12%
02:00 +22°C° 0 mm 4 mps 733 mmHg 14%
03:00 +21°C° 0 mm 4 mps 733 mmHg 16%
04:00 +21°C° 0 mm 5 mps 733 mmHg 18%
05:00 +20°C° 0 mm 5 mps 733 mmHg 19%
06:00 +20°C° 0 mm 5 mps 733 mmHg 20%
07:00 +22°C° 0 mm 6 mps 734 mmHg 19%
08:00 +23°C° 0 mm 8 mps 734 mmHg 18%
09:00 +26°C° 0 mm 9 mps 735 mmHg 17%
10:00 +27°C° 0 mm 9 mps 735 mmHg 16%
11:00 +29°C° 0 mm 9 mps 735 mmHg 15%
12:00 +32°C° 0 mm 9 mps 735 mmHg 14%
13:00 +33°C° 0 mm 8 mps 734 mmHg 13%
14:00 +34°C° 0 mm 8 mps 733 mmHg 11%
15:00 +35°C° 0 mm 7 mps 733 mmHg 10%
16:00 +34°C° 0 mm 7 mps 733 mmHg 11%
17:00 +33°C° 0 mm 7 mps 733 mmHg 11%
18:00 +32°C° 0 mm 6 mps 733 mmHg 12%
19:00 +29°C° 0 mm 6 mps 734 mmHg 14%
20:00 +27°C° 0 mm 5 mps 734 mmHg 16%
21:00 +25°C° 0 mm 5 mps 735 mmHg 18%
22:00 +23°C° 0 mm 5 mps 735 mmHg 19%
23:00 +22°C° 0 mm 5 mps 735 mmHg 20%

12 March, Friday

Time Temperature Precipitation Wind Pressure Humidity
00:00 +22°C° 0 mm 5 mps 735 mmHg 21%
01:00 +21°C° 0 mm 5 mps 734 mmHg 22%
02:00 +21°C° 0 mm 5 mps 734 mmHg 23%
03:00 +20°C° 0 mm 5 mps 734 mmHg 25%
04:00 +20°C° 0 mm 5 mps 734 mmHg 26%
05:00 +19°C° 0 mm 6 mps 734 mmHg 28%
06:00 +19°C° 0 mm 6 mps 734 mmHg 30%
07:00 +20°C° 0 mm 7 mps 735 mmHg 28%
08:00 +22°C° 0 mm 9 mps 736 mmHg 27%
09:00 +23°C° 0 mm 10 mps 736 mmHg 26%
10:00 +26°C° 0 mm 9 mps 736 mmHg 23%
11:00 +28°C° 0 mm 9 mps 736 mmHg 19%
12:00 +31°C° 0 mm 9 mps 736 mmHg 15%
13:00 +32°C° 0 mm 8 mps 735 mmHg 13%
14:00 +33°C° 0 mm 8 mps 734 mmHg 11%
15:00 +34°C° 0 mm 8 mps 733 mmHg 10%
16:00 +33°C° 0 mm 7 mps 733 mmHg 11%
17:00 +32°C° 0 mm 6 mps 733 mmHg 12%
18:00 +29°C° 0 mm 6 mps 733 mmHg 13%
19:00 +28°C° 0 mm 5 mps 734 mmHg 15%
20:00 +26°C° 0 mm 5 mps 734 mmHg 17%
21:00 +23°C° 0 mm 5 mps 735 mmHg 19%
22:00 +22°C° 0 mm 5 mps 735 mmHg 20%
23:00 +22°C° 0 mm 4 mps 735 mmHg 20%

13 March, Saturday

Time Temperature Precipitation Wind Pressure Humidity
00:00 +21°C° 0 mm 4 mps 735 mmHg 21%
01:00 +20°C° 0 mm 4 mps 735 mmHg 21%
02:00 +20°C° 0 mm 4 mps 734 mmHg 22%
03:00 +19°C° 0 mm 4 mps 734 mmHg 22%
04:00 +19°C° 0 mm 4 mps 734 mmHg 22%
05:00 +19°C° 0 mm 5 mps 734 mmHg 23%
06:00 +17°C° 0 mm 5 mps 734 mmHg 23%
07:00 +20°C° 0 mm 6 mps 735 mmHg 23%
08:00 +22°C° 0 mm 8 mps 735 mmHg 23%
09:00 +23°C° 0 mm 9 mps 736 mmHg 23%
10:00 +26°C° 0 mm 8 mps 736 mmHg 20%
11:00 +28°C° 0 mm 7 mps 736 mmHg 17%
12:00 +30°C° 0 mm 7 mps 736 mmHg 14%
13:00 +32°C° 0 mm 6 mps 735 mmHg 13%
14:00 +33°C° 0 mm 5 mps 734 mmHg 11%
15:00 +34°C° 0 mm 5 mps 733 mmHg 10%
16:00 +33°C° 0 mm 5 mps 733 mmHg 11%
17:00 +32°C° 0 mm 4 mps 733 mmHg 12%
18:00 +32°C° 0 mm 4 mps 733 mmHg 13%
19:00 +29°C° 0 mm 4 mps 733 mmHg 16%
20:00 +27°C° 0 mm 4 mps 734 mmHg 19%
21:00 +25°C° 0 mm 4 mps 735 mmHg 21%
22:00 +23°C° 0 mm 4 mps 735 mmHg 23%
23:00 +23°C° 0 mm 4 mps 735 mmHg 25%
Show more

We Need Your Consent

Meteoprog and our Service Providers may store and access personal data such as cookies, device identifiers or other similar technologies on your device and process such data to personalise content and ads, as well as provide social media features and to analyse the traffic.

  • Store and/or access information on your device

    Cookies, device identifiers or other information can be stored or accessed on your device for the purposes indicated above.

  • Personalised ads and content, ad and content measurement, audience insights, and products development

    Ads and content can be personalised based on a profile. More data can be added to better personalise ads and content. Ad and content performance can be measured. Insights about the audience who saw the ads and content can be derived. Such data can be used to develop or improve user’s experience, systems and software.

By clicking ‘I Agree’ you will allow the use of indicated cookies, device identifiers, web beacons or other similar technologies. Your settings can be changed in the browser on your device.

For certain purposes, legitimate interests may be relied on, rather than consent. You can read more about this in our Privacy and Cookie Policy.